| time (UTC) | temp F | wind direction | speed knots | gust knots | rain 1hr in | rain 24hr in | rain mn in | humidity % | barometer mb |
| 20260901000029 | 69 | 78 | 0.0 | 0.9 | 0.00 | 0.01 | 0.01 | 82 | 1019.8 |
| 20260831234532 | 69 | 100 | 0.0 | 0.9 | 0.00 | 0.01 | 0.01 | 81 | 1020.0 |
| 20260831233014 | 70 | 169 | 0.0 | 0.0 | 0.00 | 0.01 | 0.01 | 80 | 1020.1 |
| 20260831231523 | 70 | 149 | 0.0 | 0.9 | 0.00 | 0.01 | 0.01 | 79 | 1020.2 |
| 20260831230051 | 70 | 214 | 0.0 | 1.7 | 0.00 | 0.01 | 0.01 | 78 | 1020.3 |
| 20260831224550 | 71 | 145 | 0.0 | 0.9 | 0.00 | 0.01 | 0.01 | 77 | 1020.4 |
| 20260831223037 | 71 | 198 | 0.0 | 2.6 | 0.00 | 0.01 | 0.01 | 77 | 1020.4 |
| 20260831221533 | 71 | 108 | 0.0 | 1.7 | 0.00 | 0.01 | 0.01 | 77 | 1020.3 |
| 20260831220014 | 72 | 200 | 0.0 | 2.6 | 0.00 | 0.01 | 0.01 | 79 | 1020.3 |
| 20260831214512 | 72 | 228 | 0.0 | 4.3 | 0.00 | 0.01 | 0.01 | 79 | 1020.4 |
| 20260831213058 | 73 | 124 | 0.0 | 4.3 | 0.00 | 0.01 | 0.01 | 78 | 1020.5 |
| 20260831211555 | 73 | 67 | 0.0 | 2.6 | 0.00 | 0.01 | 0.01 | 77 | 1020.3 |
| 20260831210043 | 74 | 210 | 0.0 | 5.2 | 0.00 | 0.01 | 0.01 | 76 | 1020.3 |
| 20260831204543 | 75 | 131 | 0.0 | 2.6 | 0.00 | 0.01 | 0.01 | 75 | 1020.3 |
| 20260831203041 | 76 | 92 | 0.0 | 2.6 | 0.00 | 0.01 | 0.01 | 72 | 1020.3 |
| 20260831201542 | 77 | 193 | 0.0 | 2.6 | 0.00 | 0.01 | 0.01 | 68 | 1020.4 |
| 20260831200040 | 78 | 193 | 0.0 | 3.5 | 0.00 | 0.01 | 0.01 | 67 | 1020.6 |
| 20260831194558 | 77 | 135 | 0.0 | 5.2 | 0.00 | 0.01 | 0.01 | 67 | 1020.7 |
| 20260831193040 | 78 | 352 | 0.0 | 5.2 | 0.00 | 0.01 | 0.01 | 66 | 1020.8 |
| 20260831191539 | 76 | 150 | 0.0 | 2.6 | 0.00 | 0.01 | 0.01 | 67 | 1021.0 |
| 20260831190044 | 76 | 108 | 0.0 | 5.2 | 0.00 | 0.01 | 0.01 | 68 | 1021.1 |
| 20260831184521 | 77 | 154 | 0.9 | 3.5 | 0.00 | 0.01 | 0.01 | 66 | 1021.0 |
| 20260831183020 | 77 | 134 | 0.0 | 5.2 | 0.00 | 0.01 | 0.01 | 64 | 1021.1 |
| 20260831181502 | 78 | 67 | 0.9 | 7.0 | 0.00 | 0.01 | 0.01 | 65 | 1021.1 |
| 20260831180001 | 77 | 133 | 0.0 | 4.3 | 0.00 | 0.01 | 0.01 | 67 | 1021.2 |
| 20260831174543 | 79 | 56 | 0.9 | 4.3 | 0.00 | 0.01 | 0.01 | 66 | 1021.2 |
| 20260831173045 | 79 | 125 | 0.0 | 3.5 | 0.00 | 0.01 | 0.01 | 63 | 1021.3 |
| 20260831171527 | 80 | 286 | 0.0 | 5.2 | 0.00 | 0.01 | 0.01 | 60 | 1021.3 |
| 20260831170023 | 81 | 122 | 0.0 | 2.6 | 0.00 | 0.01 | 0.01 | 63 | 1021.3 |
| 20260831164503 | 79 | 290 | 0.0 | 3.5 | 0.00 | 0.01 | 0.01 | 64 | 1021.6 |
| 20260831163003 | 78 | 331 | 0.0 | 3.5 | 0.00 | 0.01 | 0.01 | 66 | 1021.5 |
| 20260831161650 | 78 | 84 | 1.7 | 3.5 | 0.00 | 0.01 | 0.01 | 64 | 1021.7 |
| 20260831160048 | 78 | 79 | 0.0 | 5.2 | 0.00 | 0.01 | 0.01 | 64 | 1021.8 |
| 20260831154546 | 78 | 95 | 0.9 | 6.1 | 0.00 | 0.01 | 0.01 | 63 | 1021.9 |
| 20260831153045 | 77 | 76 | 0.9 | 4.3 | 0.00 | 0.01 | 0.01 | 62 | 1021.8 |
| 20260831151543 | 77 | 339 | 1.7 | 5.2 | 0.00 | 0.01 | 0.01 | 65 | 1021.8 |
| 20260831150043 | 77 | 55 | 0.0 | 2.6 | 0.00 | 0.01 | 0.01 | 70 | 1021.9 |
| 20260831144539 | 76 | 73 | 0.0 | 4.3 | 0.00 | 0.01 | 0.01 | 72 | 1022.0 |
| 20260831143049 | 75 | 75 | 0.0 | 4.3 | 0.00 | 0.01 | 0.01 | 69 | 1022.1 |
| 20260831141518 | 75 | 285 | 0.0 | 2.6 | 0.00 | 0.01 | 0.01 | 72 | 1021.9 |
| 20260831140017 | 75 | 82 | 0.0 | 0.9 | 0.00 | 0.01 | 0.01 | 72 | 1021.9 |
| 20260831134556 | 74 | 108 | 0.0 | 2.6 | 0.00 | 0.01 | 0.01 | 79 | 1021.7 |
| 20260831133052 | 73 | 263 | 0.0 | 2.6 | 0.00 | 0.01 | 0.01 | 77 | 1021.6 |
| 20260831131545 | 73 | 256 | 0.9 | 2.6 | 0.00 | 0.01 | 0.01 | 80 | 1021.9 |
| 20260831130031 | 72 | 298 | 0.0 | 2.6 | 0.00 | 0.01 | 0.01 | 83 | 1021.7 |
| 20260831124521 | 70 | 299 | 0.0 | 1.7 | 0.00 | 0.01 | 0.01 | 85 | 1021.8 |
| 20260831123015 | 68 | 294 | 0.0 | 1.7 | 0.00 | 0.01 | 0.01 | 87 | 1021.6 |
| 20260831121515 | 68 | 146 | 0.0 | 0.9 | 0.00 | 0.01 | 0.01 | 89 | 1021.6 |
| 20260831120012 | 65 | 274 | 0.0 | 0.9 | 0.01 | 0.01 | 0.01 | 95 | 1021.6 |
| 20260831114511 | 64 | 253 | 0.0 | 0.0 | 0.01 | 0.01 | 0.01 | 96 | 1021.4 |
| 20260831113009 | 64 | 152 | 0.0 | 0.0 | 0.01 | 0.01 | 0.01 | 96 | 1021.3 |
| 20260831111504 | 63 | 152 | 0.0 | 0.0 | 0.01 | 0.01 | 0.01 | 96 | 1021.0 |
| 20260831110002 | 62 | 152 | 0.0 | 0.0 | 0.00 | 0.00 | 0.00 | 96 | 1020.7 |
| 20260831104545 | 61 | 152 | 0.0 | 0.0 | 0.00 | 0.00 | 0.00 | 96 | 1020.7 |
| 20260831103044 | 61 | 152 | 0.0 | 0.0 | 0.00 | 0.00 | 0.00 | 96 | 1020.7 |
| 20260831101527 | 61 | 152 | 0.0 | 0.0 | 0.00 | 0.00 | 0.00 | 96 | 1020.7 |
| 20260831100025 | 61 | 152 | 0.0 | 0.0 | 0.00 | 0.00 | 0.00 | 96 | 1020.8 |
| 20260831094509 | 61 | 152 | 0.0 | 0.0 | 0.00 | 0.00 | 0.00 | 96 | 1020.7 |
| 20260831093005 | 61 | 152 | 0.0 | 0.0 | 0.00 | 0.00 | 0.00 | 95 | 1020.7 |
| 20260831091557 | 61 | 152 | 0.0 | 0.0 | 0.00 | 0.00 | 0.00 | 96 | 1020.4 |
| 20260831090047 | 60 | 152 | 0.0 | 0.0 | 0.00 | 0.00 | 0.00 | 95 | 1020.4 |
| 20260831084531 | 60 | 152 | 0.0 | 0.0 | 0.00 | 0.00 | 0.00 | 95 | 1020.4 |
| 20260831083037 | 61 | 152 | 0.0 | 0.0 | 0.00 | 0.00 | 0.00 | 94 | 1020.5 |
| 20260831081509 | 61 | 152 | 0.0 | 0.0 | 0.00 | 0.00 | 0.00 | 94 | 1020.5 |
| 20260831080006 | 61 | 152 | 0.0 | 0.0 | 0.00 | 0.00 | 0.00 | 94 | 1020.4 |
| 20260831074548 | 62 | 152 | 0.0 | 0.0 | 0.00 | 0.00 | 0.00 | 93 | 1020.5 |
| 20260831073045 | 62 | 152 | 0.0 | 0.0 | 0.00 | 0.00 | 0.00 | 93 | 1020.5 |
| 20260831071524 | 63 | 152 | 0.0 | 0.0 | 0.00 | 0.00 | 0.00 | 93 | 1020.1 |
| 20260831070026 | 64 | 152 | 0.0 | 0.0 | 0.00 | 0.00 | 0.00 | 92 | 1020.3 |
| 20260831064504 | 64 | 152 | 0.0 | 0.0 | 0.00 | 0.00 | 0.00 | 90 | 1020.1 |
| 20260831063101 | 65 | 170 | 0.0 | 0.9 | 0.00 | 0.00 | 0.00 | 89 | 1019.9 |
| 20260831061542 | 66 | 262 | 0.0 | 3.5 | 0.00 | 0.00 | 0.00 | 89 | 1019.9 |
| 20260831060042 | 66 | 281 | 0.0 | 1.7 | 0.00 | 0.00 | 0.00 | 91 | 1019.6 |
| 20260831054522 | 66 | 272 | 0.0 | 0.9 | 0.00 | 0.00 | 0.00 | 90 | 1019.6 |
| 20260831053020 | 67 | 272 | 0.0 | 0.9 | 0.00 | 0.00 | 0.00 | 90 | 1019.6 |
| 20260831051600 | 67 | 177 | 0.0 | 0.0 | 0.00 | 0.00 | 0.00 | 91 | 1019.6 |
| 20260831050057 | 68 | 232 | 0.0 | 0.9 | 0.00 | 0.00 | 0.00 | 90 | 1019.6 |
| 20260831044538 | 69 | 236 | 0.0 | 5.2 | 0.00 | 0.00 | 0.00 | 91 | 1019.7 |
| 20260831043034 | 70 | 75 | 0.0 | 0.0 | 0.00 | 0.00 | 0.00 | 93 | 1019.6 |
| 20260831041555 | 70 | 75 | 0.0 | 0.0 | 0.00 | 0.00 | 0.00 | 93 | 1019.6 |
| 20260831040021 | 70 | 74 | 0.0 | 0.0 | 0.00 | 0.00 | 0.00 | 92 | 1019.6 |
| 20260831034520 | 70 | 74 | 0.0 | 0.0 | 0.00 | 0.00 | 0.00 | 92 | 1019.5 |
| 20260831033023 | 71 | 74 | 0.0 | 0.9 | 0.00 | 0.00 | 0.00 | 91 | 1019.6 |
| 20260831031519 | 71 | 290 | 0.0 | 1.7 | 0.00 | 0.00 | 0.00 | 91 | 1019.7 |
| 20260831030018 | 71 | 328 | 0.0 | 3.5 | 0.00 | 0.00 | 0.00 | 89 | 1019.7 |
| 20260831024517 | 72 | 249 | 0.9 | 5.2 | 0.00 | 0.00 | 0.00 | 88 | 1019.7 |
| 20260831023018 | 72 | 266 | 0.9 | 3.5 | 0.00 | 0.00 | 0.00 | 88 | 1019.7 |
| 20260831021509 | 72 | 273 | 0.9 | 4.3 | 0.00 | 0.00 | 0.00 | 89 | 1019.4 |
| 20260831020004 | 72 | 326 | 0.0 | 2.6 | 0.00 | 0.00 | 0.00 | 91 | 1019.5 |
| 20260831014506 | 72 | 149 | 0.0 | 1.7 | 0.00 | 0.00 | 0.00 | 91 | 1019.3 |
| 20260831013003 | 72 | 101 | 0.0 | 0.9 | 0.00 | 0.00 | 0.00 | 91 | 1019.2 |
| 20260831011505 | 72 | 53 | 0.0 | 0.9 | 0.00 | 0.00 | 0.00 | 90 | 1019.1 |
| 20260831010001 | 72 | 146 | 0.0 | 0.0 | 0.00 | 0.00 | 0.00 | 89 | 1019.3 |
| 20260831004600 | 72 | 150 | 0.0 | 0.0 | 0.00 | 0.00 | 0.00 | 88 | 1019.3 |
| 20260831003058 | 72 | 150 | 0.0 | 0.0 | 0.00 | 0.00 | 0.00 | 87 | 1019.2 |
| 20260831001542 | 72 | 150 | 0.0 | 0.0 | 0.00 | 0.00 | 0.00 | 86 | 1019.1 |